AirNav   Air Wisconsin pilot careers
 
 1099 users online  

42VA Virginia Beach Airport
Virginia Beach, Virginia, USA

GOING TO VIRGINIA BEACH?


FAA INFORMATION EFFECTIVE 24 MAY 2018

Location

FAA Identifier: 42VA
Lat/Long: 36-40-44.0550N / 076-01-57.9950W
36-40.734250N / 076-01.966583W
36.6789042 / -76.0327764
(estimated)
Elevation: 15 ft. / 5 m (estimated)
Variation: 10W (1990)
From city: 4 miles SE of VIRGINIA BEACH, VA
Time zone: UTC -4 (UTC -5 during Standard Time)
Zip code: 23457

Airport Operations

Airport use: Private use. Permission required prior to landing
Activation date: 04/1993
Control tower: no
ARTCC: WASHINGTON CENTER
FSS: LEESBURG FLIGHT SERVICE STATION
Attendance: UNATNDD
Wind indicator: yes
Segmented circle: no

Airport Communications

WX ASOS at NTU (9 nm N): PHONE DSN 433-3619 or 757-433-3619
WX AWOS-3 at CPK (14 nm W): 123.675 (757-204-4290)
WX ASOS at ORF (15 nm NW): PHONE 757-460-9348
WX AWOS-3 at ONX (17 nm S): 119.775 (252-453-8939)

Nearby radio navigation aids

VOR radial/distance  VOR name  Freq  Var
ORFr155/15.1NORFOLK VORTAC116.9007W
ECGr022/26.2ELIZABETH CITY VOR/DME112.5007W

 
NDB name  Hdg/Dist  Freq  Var  ID
INGLE142/14.332909WOR --- .-.
WOODVILLE037/28.025410WLLW .-.. .-.. .--

Airport Services

Runway Information

Runway 11/29

Dimensions: 4845 x 190 ft. / 1477 x 58 m
Surface: turf, in good condition
RUNWAY 11  RUNWAY 29
Latitude: 36-40.824167N36-40.644333N
Longitude: 076-02.449500W076-01.483667W
Elevation: 10.0 ft.9.0 ft.
Traffic pattern: leftleft

Airport Ownership and Management from official FAA records

Ownership: Privately-owned
Owner: VIRGINIA BEACH ARPT, LLC
4455 SOUTH BLVD
VIRGINIA BEACH, VA 23452
Phone 757-490-3157
Manager: GERALD YAGEN
4455 SOUTH BLVD
VIRGINIA BEACH, VA 23452
Phone 757-490-3157
EXTENSION 500.

Airport Operational Statistics

Aircraft based on the field: 54
Single engine airplanes: 50
Multi engine airplanes: 4
    

Additional Remarks

AWOS - PHONE 757-204-2683, FREQUENCY 119.925

Instrument Procedures

There are no published instrument procedures at 42VA.

Some nearby airports with instrument procedures:

KNTU - Oceana Naval Air Station (Apollo Soucek Field) (9 nm N)
KCPK - Chesapeake Regional Airport (14 nm W)
KORF - Norfolk International Airport (15 nm NW)
KONX - Currituck County Regional Airport (17 nm S)
KNGU - Norfolk Naval Station (Chambers Field) (20 nm NW)
 
Loc | Ops | Rwys | IFR | FBO | Links
Com | Nav | Svcs | Stats | Notes

AirNav Hotels Sweepstakes
 
Area around 42VA (Virginia Beach Airport)
 
Road maps at: MapQuest Bing Google
 
Aerial photo
WARNING: Photo may not be current or correct
Aerial photo of 42VA (Virginia Beach Airport)
Photo by Jerry Yagen
Photo taken 10-Nov-2012
looking east.

Do you have a better or more recent aerial photo of Virginia Beach Airport that you would like to share? If so, please send us your photo.

 
Sectional chart

 
Airport distance calculator
Flying to Virginia Beach Airport? Find the distance to fly.

From to 42VA

Sunrise and sunset
Times for 18-Jun-2018
 Local
(UTC-4)
 Zulu
(UTC)
Morning civil twilight05:1509:15
Sunrise05:4609:46
Sunset20:2400:24
Evening civil twilight20:5500:55

Current date and time
Zulu (UTC)  18-Jun-2018 23:44:10
Local (UTC-4)  18-Jun-2018 19:44:10
 
METAR
KNFE 
5nm W 
182256Z AUTO 11004KT 10SM CLR 30/25 A2996 RMK AO2 SLP147 T03000250
KNTU 
8nm N 
182256Z 10005KT 10SM FEW050 BKN300 28/22 A2995 RMK AO2 SLP145 T2 SET T02780222
KCPK 
14nm W 
182335Z AUTO 13005KT 7SM CLR 28/24 A2995 RMK AO2 T02790242
KORF 
16nm NW 
182251Z 00000KT 10SM CLR 31/24 A2995 RMK AO2 SLP141 T03060244
KONX 
17nm S 
182335Z AUTO 10SM CLR 24/21 A2997 RMK AO2 T02430208
KNGU 
18nm NW 
182259Z VRB03KT 9SM FEW050 BKN250 30/22 A2996 RMK AO2 SLP146 T03000217
TAF
KNTU 
8nm N 
1819/1915 VRB06KT 9999 BKN030 BKN300 QNH2992INS TEMPO 1819/1823 VRB20G30KT 3200 TSRA BKN015CB BKN050 OVC300 FM182300 VRB06KT 9999 SCT030 BKN280 QNH2990INS FM190700 26010KT 9999 BKN030 BKN100 BKN250 QNH2986INS AMD 1930 T32/1819Z T24/1909Z FN20051
KORF 
16nm NW 
181720Z 1818/1918 04005KT P6SM SCT035 TEMPO 1818/1822 BKN035 FM190000 22006KT P6SM SCT250 FM191400 30006KT P6SM SCT100
KNGU 
18nm NW 
1815/1915 VRB04KT 9999 BKN012 BKN280 QNH3001INS FM181600 04006KT SCT030 BKN280 QNH2992INS FM182300 VRB04KT 9999 SCT040 BKN280 QNH2990INS FM190700 26008KT 9999 SCT050 BKN280 QNH2986INS T32/1819Z T25/1910Z FN20004
NOTAMs
Click for the latest NOTAMs
NOTAMs are issued by the DoD/FAA and will open in a separate window not controlled by AirNav.

 

 
 

Would you like to see your business listed on this page?

 If your business provides an interesting product or service to pilots, flight crews, aircraft, or users of the Virginia Beach Airport, you should consider listing it here.  To start the listing process, click on the button below
 
Add a business
 

Other Pages about Virginia Beach Airport

www.vbairport.com
Military Aviation Museum
www.fighterfactory.com
 
Update a link
 
Copyright © AirNav, LLC. All rights reserved. Privacy Policy  Contact